Regional Weather Roundup
Issued by NWS Sioux Falls, SD

Home | Current Version | Previous Version | Text Only | Print | Product List | Glossary On
Versions: 1 2 3 4 5 6 7 8 9 10 11 12 13 14 15 16 17 18 19 20 21 22 23 24 25 26 27 28 29 30 31 32 33 34 35 36 37 38 39 40 41 42 43 44 45 46 47 48 49 50
000
ASUS43 KFSD 182202
RWRFSD

WEATHER ROUNDUP FOR SE SOUTH DAKOTA/SW MINNESOTA/NW IOWA
NATIONAL WEATHER SERVICE SIOUX FALLS SD
400 PM CST WED JAN 18 2017

NOTE: "FAIR" INDICATES FEW OR NO CLOUDS BELOW 12,000 FEET WITH NO
SIGNIFICANT WEATHER AND OR OBSTRUCTIONS TO VISIBILITY.


SDZ038>040-050-052>070-182300-
SOUTHEAST SOUTH DAKOTA

CITY           SKY/WX    TMP DP  RH WIND       PRES   REMARKS
BROOKINGS      SUNNY     38  31  76 S10       29.77F
CHAMBERLAIN    SUNNY     45  32  60 NE3       29.73S
HURON          SUNNY     38  29  70 SE7       29.74F
MADISON          N/A     39  39 100 S9          N/A
MITCHELL       SUNNY     47  35  63 SE7       29.76F
SIOUX FALLS    SUNNY     45  38  76 S8        29.81S
WINNER         FAIR      54  26  34 SW8       29.72S
YANKTON        SUNNY     52  37  58 S12       29.78F
$$

MNZ071-072-080-081-089-090-097-098-182300-
SOUTHWEST MINNESOTA

CITY           SKY/WX    TMP DP  RH WIND       PRES   REMARKS
FAIRMONT       CLEAR     39  36  89 S10       29.87R
JACKSON        SUNNY     37  34  87 S8        29.85R
LUVERNE        SUNNY     39  36  87 S7        29.83S
MARSHALL       CLEAR     39  32  76 S13       29.79S
MONTEVIDEO     CLEAR     43  30  61 CALM      29.81R
PIPESTONE      SUNNY     37  34  87 S7        29.80S
REDWOOD FALLS  CLEAR     39  33  79 S10       29.81S
TRACY          CLEAR     40  34  80 SW17      29.79S
WINDOM         CLEAR     41  36  81 S8        29.83S
WORTHINGTON    SUNNY     41  37  86 S12       29.83R
$$

IAZ001>003-012>014-020>022-031-032-NEZ013-014-SDZ071-182300-
NORTHWEST IOWA

CITY           SKY/WX    TMP DP  RH WIND       PRES   REMARKS
CHEROKEE       SUNNY     46  40  78 SW10      29.88R
DENISON        SUNNY     46  41  81 S13       29.88S
ESTHERVILLE    SUNNY     40  38  93 S9        29.85R
LE MARS        SUNNY     48  41  76 S10       29.86S
ORANGE CITY    SUNNY     45  41  87 S9        29.85R
SHELDON        SUNNY     43  43 100 S15       29.83S
SIOUX CITY     SUNNY     50  40  68 S8        29.86F
SPENCER        SUNNY     42  39  89 S14       29.86R
STORM LAKE     SUNNY     45  39  81 S13       29.88R
$$

ABBREVIATIONS USED IN REMARKS
   TC - TEMPERATURE IN CELSIUS
  WCI - WIND CHILL INDEX
   HX - HEAT INDEX
  VSB - VISIBILITY





USA.gov is the U.S. government's official web portal to all federal, state and local government web resources and services.